Time,TemperatureF,DewpointF,PressureIn,WindDirection,WindDirectionDegrees,WindSpeedMPH,WindSpeedGustMPH,Humidity,HourlyPrecipIn,Conditions,Clouds,dailyrainin,SoftwareType,DateUTC
2013-03-11 00:00:00,48.6,25.3,30.23,NE,54,0.0,0.0,40,0.00,,,0.00,Wunderground v.1.15,2013-03-11 04:00:00,
2013-03-11 00:05:00,48.4,25.8,30.22,NE,54,0.0,0.0,41,0.00,,,0.00,Wunderground v.1.15,2013-03-11 04:05:00,
2013-03-11 00:10:00,48.3,26.2,30.22,NE,54,0.0,0.0,42,0.00,,,0.00,Wunderground v.1.15,2013-03-11 04:10:00,
2013-03-11 00:15:00,48.1,26.1,30.22,NE,54,0.0,0.0,42,0.00,,,0.00,Wunderground v.1.15,2013-03-11 04:15:00,
2013-03-11 00:20:00,48.0,26.0,30.22,NE,54,0.0,0.0,42,0.00,,,0.00,Wunderground v.1.15,2013-03-11 04:20:00,
2013-03-11 00:25:00,47.8,25.8,30.21,NE,53,0.0,0.0,42,0.00,,,0.00,Wunderground v.1.15,2013-03-11 04:25:00,
2013-03-11 00:30:00,47.7,26.3,30.21,NE,53,0.0,0.0,43,0.00,,,0.00,Wunderground v.1.15,2013-03-11 04:30:00,
2013-03-11 00:35:00,47.5,25.5,30.21,NE,54,0.0,0.0,42,0.00,,,0.00,Wunderground v.1.15,2013-03-11 04:35:00,
2013-03-11 00:40:00,47.4,26.0,30.20,NE,53,0.0,0.0,43,0.00,,,0.00,Wunderground v.1.15,2013-03-11 04:40:00,
2013-03-11 00:45:00,47.3,25.9,30.21,NE,54,0.0,0.0,43,0.00,,,0.00,Wunderground v.1.15,2013-03-11 04:45:00,
2013-03-11 00:50:00,47.1,25.7,30.21,NE,53,0.0,0.0,43,0.00,,,0.00,Wunderground v.1.15,2013-03-11 04:50:00,
2013-03-11 00:55:00,47.0,26.2,30.21,NE,54,0.0,0.0,44,0.00,,,0.00,Wunderground v.1.15,2013-03-11 04:55:00,
2013-03-11 01:00:00,46.9,26.1,30.21,NE,53,0.0,0.0,44,0.00,,,0.00,Wunderground v.1.15,2013-03-11 05:00:00,
2013-03-11 01:10:00,46.7,25.9,30.21,NE,53,0.0,0.0,44,0.00,,,0.00,Wunderground v.1.15,2013-03-11 05:10:00,
2013-03-11 01:15:00,46.5,25.7,30.20,NE,54,0.0,0.0,44,0.00,,,0.00,Wunderground v.1.15,2013-03-11 05:15:00,
2013-03-11 01:25:00,46.2,26.0,30.21,NE,54,0.0,0.0,45,0.00,,,0.00,Wunderground v.1.15,2013-03-11 05:25:00,
2013-03-11 01:30:00,46.1,26.4,30.21,NE,54,0.0,0.0,46,0.00,,,0.00,Wunderground v.1.15,2013-03-11 05:30:00,
2013-03-11 01:35:00,46.0,26.9,30.21,NE,54,0.0,0.0,47,0.00,,,0.00,Wunderground v.1.15,2013-03-11 05:35:00,
2013-03-11 01:45:00,45.7,26.6,30.21,NE,53,0.0,0.0,47,0.00,,,0.00,Wunderground v.1.15,2013-03-11 05:45:00,
2013-03-11 01:50:00,45.6,26.5,30.22,NE,54,0.0,0.0,47,0.00,,,0.00,Wunderground v.1.15,2013-03-11 05:50:00,
2013-03-11 01:55:00,45.5,26.9,30.21,NE,54,0.0,0.0,48,0.00,,,0.00,Wunderground v.1.15,2013-03-11 05:55:00,
2013-03-11 02:00:00,45.4,27.3,30.21,NE,54,0.0,0.0,49,0.00,,,0.00,Wunderground v.1.15,2013-03-11 06:00:00,
2013-03-11 02:05:00,45.2,27.2,30.21,NE,54,0.0,0.0,49,0.00,,,0.00,Wunderground v.1.15,2013-03-11 06:05:00,
2013-03-11 02:10:00,45.0,27.0,30.21,NE,54,0.0,0.0,49,0.00,,,0.00,Wunderground v.1.15,2013-03-11 06:10:00,
2013-03-11 02:15:00,45.0,27.5,30.21,NE,54,0.0,0.0,50,0.00,,,0.00,Wunderground v.1.15,2013-03-11 06:15:00,
2013-03-11 02:20:00,44.8,27.3,30.20,NE,53,0.0,0.0,50,0.00,,,0.00,Wunderground v.1.15,2013-03-11 06:20:00,
2013-03-11 02:30:00,44.5,28.4,30.19,NE,54,0.0,0.0,53,0.00,,,0.00,Wunderground v.1.15,2013-03-11 06:30:00,
2013-03-11 02:35:00,44.4,28.8,30.19,NE,54,0.0,0.0,54,0.00,,,0.00,Wunderground v.1.15,2013-03-11 06:35:00,
2013-03-11 02:45:00,44.2,28.6,30.19,NE,54,0.0,0.0,54,0.00,,,0.00,Wunderground v.1.15,2013-03-11 06:45:00,
2013-03-11 02:50:00,44.1,28.5,30.19,NE,54,0.0,0.0,54,0.00,,,0.00,Wunderground v.1.15,2013-03-11 06:50:00,
2013-03-11 02:55:00,44.1,28.9,30.19,NE,53,0.0,0.0,55,0.00,,,0.00,Wunderground v.1.15,2013-03-11 06:55:00,
2013-03-11 03:00:00,44.0,29.3,30.19,NE,53,0.0,0.0,56,0.00,,,0.00,Wunderground v.1.15,2013-03-11 07:00:00,
2013-03-11 03:05:00,44.0,29.7,30.19,NE,53,0.0,0.0,57,0.00,,,0.00,Wunderground v.1.15,2013-03-11 07:05:00,
2013-03-11 03:10:00,43.9,29.6,30.18,NE,54,0.0,0.0,57,0.00,,,0.00,Wunderground v.1.15,2013-03-11 07:10:00,
2013-03-11 03:15:00,43.8,30.0,30.18,NE,54,0.0,0.0,58,0.00,,,0.00,Wunderground v.1.15,2013-03-11 07:15:00,
2013-03-11 03:20:00,43.7,29.9,30.18,NE,54,0.0,0.0,58,0.00,,,0.00,Wunderground v.1.15,2013-03-11 07:20:00,
2013-03-11 03:25:00,43.6,30.2,30.18,NE,54,0.0,0.0,59,0.00,,,0.00,Wunderground v.1.15,2013-03-11 07:25:00,
2013-03-11 03:30:00,43.5,30.5,30.18,NE,53,0.0,0.0,60,0.00,,,0.00,Wunderground v.1.15,2013-03-11 07:30:00,
2013-03-11 03:35:00,43.4,30.8,30.17,NE,53,0.0,0.0,61,0.00,,,0.00,Wunderground v.1.15,2013-03-11 07:35:00,
2013-03-11 03:40:00,43.3,31.1,30.17,NE,54,0.0,0.0,62,0.00,,,0.00,Wunderground v.1.15,2013-03-11 07:40:00,
2013-03-11 03:50:00,43.2,31.4,30.17,NE,53,0.0,0.0,63,0.00,,,0.00,Wunderground v.1.15,2013-03-11 07:50:00,
2013-03-11 03:55:00,43.2,32.2,30.16,NE,54,0.0,0.0,65,0.00,,,0.00,Wunderground v.1.15,2013-03-11 07:55:00,
2013-03-11 04:00:00,43.1,32.5,30.16,NE,54,0.0,0.0,66,0.00,,,0.00,Wunderground v.1.15,2013-03-11 08:00:00,
2013-03-11 04:05:00,43.1,32.5,30.16,NE,53,0.0,0.0,66,0.00,,,0.00,Wunderground v.1.15,2013-03-11 08:05:00,
2013-03-11 04:10:00,43.1,33.3,30.15,NE,54,0.0,0.0,68,0.00,,,0.00,Wunderground v.1.15,2013-03-11 08:10:00,
2013-03-11 04:15:00,43.1,33.6,30.15,NE,54,0.0,0.0,69,0.00,,,0.00,Wunderground v.1.15,2013-03-11 08:15:00,
2013-03-11 04:20:00,43.1,33.6,30.15,NE,54,0.0,0.0,69,0.00,,,0.00,Wunderground v.1.15,2013-03-11 08:20:00,
2013-03-11 04:25:00,43.0,33.9,30.15,NE,53,0.0,0.0,70,0.00,,,0.00,Wunderground v.1.15,2013-03-11 08:25:00,
2013-03-11 04:30:00,43.0,34.2,30.15,NE,53,0.0,0.0,71,0.00,,,0.00,Wunderground v.1.15,2013-03-11 08:30:00,
2013-03-11 04:35:00,42.9,34.1,30.15,NE,54,0.0,0.0,71,0.00,,,0.00,Wunderground v.1.15,2013-03-11 08:35:00,
2013-03-11 04:40:00,42.9,33.8,30.15,NE,54,0.0,0.0,70,0.00,,,0.00,Wunderground v.1.15,2013-03-11 08:40:00,
2013-03-11 04:50:00,42.8,33.7,30.15,NE,54,0.0,0.0,70,0.00,,,0.00,Wunderground v.1.15,2013-03-11 08:50:00,
2013-03-11 04:55:00,42.7,33.6,30.15,NE,54,0.0,0.0,70,0.00,,,0.00,Wunderground v.1.15,2013-03-11 08:55:00,
2013-03-11 05:00:00,42.7,33.6,30.15,NE,54,0.0,0.0,70,0.00,,,0.00,Wunderground v.1.15,2013-03-11 09:00:00,
2013-03-11 05:05:00,42.6,33.5,30.15,NE,53,0.0,0.0,70,0.00,,,0.00,Wunderground v.1.15,2013-03-11 09:05:00,
2013-03-11 05:10:00,42.5,33.4,30.15,NE,53,0.0,0.0,70,0.00,,,0.00,Wunderground v.1.15,2013-03-11 09:10:00,
2013-03-11 05:15:00,42.4,33.3,30.15,NE,54,0.0,0.0,70,0.00,,,0.00,Wunderground v.1.15,2013-03-11 09:15:00,
2013-03-11 05:20:00,42.3,33.2,30.14,NE,53,0.0,0.0,70,0.00,,,0.00,Wunderground v.1.15,2013-03-11 09:20:00,
2013-03-11 05:25:00,42.2,33.5,30.14,NE,54,0.0,0.0,71,0.00,,,0.00,Wunderground v.1.15,2013-03-11 09:25:00,
2013-03-11 05:30:00,42.2,33.5,30.14,NE,54,0.0,0.0,71,0.00,,,0.00,Wunderground v.1.15,2013-03-11 09:30:00,
2013-03-11 05:35:00,42.1,33.7,30.14,NE,54,0.0,0.0,72,0.00,,,0.00,Wunderground v.1.15,2013-03-11 09:35:00,
2013-03-11 05:40:00,42.1,33.7,30.15,NE,54,0.0,0.0,72,0.00,,,0.00,Wunderground v.1.15,2013-03-11 09:40:00,
2013-03-11 05:45:00,42.1,34.4,30.15,NE,53,0.0,0.0,74,0.00,,,0.00,Wunderground v.1.15,2013-03-11 09:45:00,
2013-03-11 05:55:00,42.2,35.2,30.15,NE,54,0.0,0.0,76,0.00,,,0.00,Wunderground v.1.15,2013-03-11 09:55:00,
2013-03-11 06:00:00,42.3,35.6,30.15,NE,53,0.0,0.0,77,0.00,,,0.00,Wunderground v.1.15,2013-03-11 10:00:00,
2013-03-11 06:05:00,42.3,35.6,30.15,NE,54,0.0,0.0,77,0.00,,,0.00,Wunderground v.1.15,2013-03-11 10:05:00,
2013-03-11 06:10:00,42.4,36.0,30.15,NE,54,0.0,0.0,78,0.00,,,0.00,Wunderground v.1.15,2013-03-11 10:10:00,
2013-03-11 06:15:00,42.4,36.3,30.15,NE,54,0.0,0.0,79,0.00,,,0.00,Wunderground v.1.15,2013-03-11 10:15:00,
2013-03-11 06:20:00,42.5,36.8,30.15,NE,54,0.0,0.0,80,0.00,,,0.00,Wunderground v.1.15,2013-03-11 10:20:00,
2013-03-11 06:25:00,42.6,36.9,30.15,NE,54,0.0,0.0,80,0.00,,,0.00,Wunderground v.1.15,2013-03-11 10:25:00,
2013-03-11 06:30:00,42.6,36.9,30.15,NE,53,0.0,0.0,80,0.00,,,0.00,Wunderground v.1.15,2013-03-11 10:30:00,
2013-03-11 06:40:00,42.6,37.2,30.14,NE,54,0.0,0.0,81,0.00,,,0.00,Wunderground v.1.15,2013-03-11 10:40:00,
2013-03-11 06:45:00,42.5,37.4,30.15,NE,54,0.0,0.0,82,0.00,,,0.00,Wunderground v.1.15,2013-03-11 10:45:00,
2013-03-11 06:55:00,42.6,37.8,30.14,NE,54,0.0,0.0,83,0.00,,,0.00,Wunderground v.1.15,2013-03-11 10:55:00,
2013-03-11 07:00:00,42.6,37.8,30.14,NE,54,0.0,0.0,83,0.00,,,0.00,Wunderground v.1.15,2013-03-11 11:00:00,
2013-03-11 07:05:00,42.6,37.8,30.14,NE,54,0.0,0.0,83,0.00,,,0.00,Wunderground v.1.15,2013-03-11 11:05:00,
2013-03-11 07:10:00,42.6,38.1,30.14,NE,54,0.0,0.0,84,0.00,,,0.00,Wunderground v.1.15,2013-03-11 11:10:00,
2013-03-11 07:15:00,42.6,38.1,30.14,NE,54,0.0,0.0,84,0.00,,,0.00,Wunderground v.1.15,2013-03-11 11:15:00,
2013-03-11 07:20:00,42.7,38.5,30.14,NE,54,0.0,0.0,85,0.00,,,0.00,Wunderground v.1.15,2013-03-11 11:20:00,
2013-03-11 07:30:00,42.7,38.5,30.15,NE,54,0.0,0.0,85,0.00,,,0.00,Wunderground v.1.15,2013-03-11 11:30:00,
2013-03-11 07:35:00,42.8,38.6,30.15,NE,54,0.0,0.0,85,0.00,,,0.00,Wunderground v.1.15,2013-03-11 11:35:00,
2013-03-11 07:40:00,42.9,39.0,30.15,NE,54,0.0,0.0,86,0.00,,,0.00,Wunderground v.1.15,2013-03-11 11:40:00,
2013-03-11 07:45:00,42.9,39.0,30.16,NE,53,0.0,0.0,86,0.00,,,0.00,Wunderground v.1.15,2013-03-11 11:45:00,
2013-03-11 07:50:00,42.9,39.0,30.15,NE,54,0.0,0.0,86,0.00,,,0.00,Wunderground v.1.15,2013-03-11 11:50:00,
2013-03-11 08:00:00,42.9,39.0,30.15,NE,54,0.0,0.0,86,0.00,,,0.00,Wunderground v.1.15,2013-03-11 12:00:00,
2013-03-11 08:05:00,43.0,39.1,30.15,NE,54,0.0,0.0,86,0.00,,,0.00,Wunderground v.1.15,2013-03-11 12:05:00,
2013-03-11 08:10:00,43.0,39.4,30.14,NE,54,0.0,0.0,87,0.00,,,0.00,Wunderground v.1.15,2013-03-11 12:10:00,
2013-03-11 08:15:00,43.1,39.5,30.15,NE,54,0.0,0.0,87,0.00,,,0.00,Wunderground v.1.15,2013-03-11 12:15:00,
2013-03-11 08:20:00,43.1,39.5,30.15,NE,54,0.0,0.0,87,0.00,,,0.00,Wunderground v.1.15,2013-03-11 12:20:00,
2013-03-11 08:30:00,43.2,39.6,30.15,NE,53,0.0,0.0,87,0.00,,,0.00,Wunderground v.1.15,2013-03-11 12:30:00,
2013-03-11 08:35:00,43.3,39.7,30.15,NE,54,0.0,0.0,87,0.00,,,0.00,Wunderground v.1.15,2013-03-11 12:35:00,
2013-03-11 08:40:00,43.4,40.1,30.15,NE,54,0.0,0.0,88,0.00,,,0.00,Wunderground v.1.15,2013-03-11 12:40:00,
2013-03-11 08:45:00,43.6,40.3,30.15,West,274,0.0,0.0,88,0.00,,,0.00,Wunderground v.1.15,2013-03-11 12:45:00,
2013-03-11 08:50:00,43.8,40.8,30.15,West,274,0.0,0.0,89,0.00,,,0.00,Wunderground v.1.15,2013-03-11 12:50:00,
2013-03-11 08:55:00,44.2,41.5,30.15,West,274,0.0,0.0,90,0.00,,,0.00,Wunderground v.1.15,2013-03-11 12:55:00,
2013-03-11 09:00:00,44.7,42.2,30.15,NE,42,0.0,0.0,91,0.00,,,0.00,Wunderground v.1.15,2013-03-11 13:00:00,
2013-03-11 09:05:00,45.1,42.6,30.15,ENE,69,0.0,0.0,91,0.00,,,0.00,Wunderground v.1.15,2013-03-11 13:05:00,
2013-03-11 09:10:00,45.5,43.0,30.15,ENE,69,0.0,0.0,91,0.00,,,0.00,Wunderground v.1.15,2013-03-11 13:10:00,
2013-03-11 09:15:00,46.5,44.3,30.14,ENE,69,0.0,0.0,92,0.00,,,0.00,Wunderground v.1.15,2013-03-11 13:15:00,
2013-03-11 09:20:00,47.6,44.8,30.14,ENE,72,0.0,0.0,90,0.00,,,0.00,Wunderground v.1.15,2013-03-11 13:20:00,
2013-03-11 09:25:00,48.3,45.2,30.14,ENE,72,0.0,0.0,89,0.00,,,0.00,Wunderground v.1.15,2013-03-11 13:25:00,
2013-03-11 09:35:00,49.4,45.7,30.14,SSW,200,0.0,0.0,87,0.00,,,0.00,Wunderground v.1.15,2013-03-11 13:35:00,
2013-03-11 09:40:00,50.2,46.2,30.13,SSW,200,0.0,0.0,86,0.00,,,0.00,Wunderground v.1.15,2013-03-11 13:40:00,
2013-03-11 09:45:00,50.5,46.5,30.13,SSW,207,0.0,0.0,86,0.00,,,0.00,Wunderground v.1.15,2013-03-11 13:45:00,
2013-03-11 09:50:00,51.0,47.0,30.13,SSW,207,0.0,0.0,86,0.00,,,0.00,Wunderground v.1.15,2013-03-11 13:50:00,
2013-03-11 09:55:00,51.4,47.0,30.13,SSW,207,0.0,0.0,85,0.00,,,0.00,Wunderground v.1.15,2013-03-11 13:55:00,
2013-03-11 10:05:00,51.9,47.2,30.13,SSW,194,0.0,2.0,84,0.00,,,0.00,Wunderground v.1.15,2013-03-11 14:05:00,
2013-03-11 10:10:00,52.2,47.5,30.13,SSW,194,0.0,0.0,84,0.00,,,0.00,Wunderground v.1.15,2013-03-11 14:10:00,
2013-03-11 10:15:00,52.5,47.5,30.13,SSW,194,0.0,0.0,83,0.00,,,0.00,Wunderground v.1.15,2013-03-11 14:15:00,
2013-03-11 10:20:00,52.8,47.8,30.13,South,190,0.0,0.0,83,0.00,,,0.00,Wunderground v.1.15,2013-03-11 14:20:00,
2013-03-11 10:25:00,53.5,48.1,30.13,SSW,193,0.0,0.0,82,0.00,,,0.00,Wunderground v.1.15,2013-03-11 14:25:00,
2013-03-11 10:35:00,54.8,49.1,30.12,SSW,193,0.0,0.0,81,0.00,,,0.00,Wunderground v.1.15,2013-03-11 14:35:00,
2013-03-11 10:40:00,55.1,49.0,30.12,SSW,192,0.0,0.0,80,0.00,,,0.00,Wunderground v.1.15,2013-03-11 14:40:00,
2013-03-11 10:45:00,55.5,49.1,30.12,South,188,0.0,0.0,79,0.00,,,0.00,Wunderground v.1.15,2013-03-11 14:45:00,
2013-03-11 10:50:00,55.9,49.5,30.11,SSE,164,0.0,0.0,79,0.00,,,0.00,Wunderground v.1.15,2013-03-11 14:50:00,
2013-03-11 10:55:00,56.6,49.8,30.11,SSE,164,0.0,0.0,78,0.00,,,0.00,Wunderground v.1.15,2013-03-11 14:55:00,
2013-03-11 11:00:00,57.3,50.1,30.11,West,269,0.0,0.0,77,0.00,,,0.00,Wunderground v.1.15,2013-03-11 15:00:00,
2013-03-11 11:10:00,59.0,51.1,30.11,SSW,209,0.0,0.0,75,0.00,,,0.00,Wunderground v.1.15,2013-03-11 15:10:00,
2013-03-11 11:15:00,59.5,51.2,30.11,SSW,198,0.0,0.0,74,0.00,,,0.00,Wunderground v.1.15,2013-03-11 15:15:00,
2013-03-11 11:20:00,60.0,51.7,30.11,SSW,197,0.0,0.0,74,0.00,,,0.00,Wunderground v.1.15,2013-03-11 15:20:00,
2013-03-11 11:25:00,60.7,52.0,30.11,South,173,0.0,2.0,73,0.00,,,0.00,Wunderground v.1.15,2013-03-11 15:25:00,
2013-03-11 11:30:00,61.5,52.0,30.11,South,175,0.0,0.0,71,0.00,,,0.00,Wunderground v.1.15,2013-03-11 15:30:00,
2013-03-11 11:40:00,63.1,52.4,30.10,South,187,0.0,1.0,68,0.00,,,0.00,Wunderground v.1.15,2013-03-11 15:40:00,
2013-03-11 11:45:00,63.5,52.3,30.10,WSW,249,0.0,1.0,67,0.00,,,0.00,Wunderground v.1.15,2013-03-11 15:45:00,
2013-03-11 11:50:00,63.9,52.3,30.10,SSW,205,0.0,0.0,66,0.00,,,0.00,Wunderground v.1.15,2013-03-11 15:50:00,
2013-03-11 11:55:00,64.6,52.1,30.10,North,360,0.0,1.0,64,0.00,,,0.00,Wunderground v.1.15,2013-03-11 15:55:00,
2013-03-11 12:00:00,65.1,51.8,30.10,South,182,0.0,0.0,62,0.00,,,0.00,Wunderground v.1.15,2013-03-11 16:00:00,
2013-03-11 12:05:00,64.9,52.0,30.10,South,186,0.0,0.0,63,0.00,,,0.00,Wunderground v.1.15,2013-03-11 16:05:00,
2013-03-11 12:10:00,65.5,51.7,30.09,ENE,68,0.0,0.0,61,0.00,,,0.00,Wunderground v.1.15,2013-03-11 16:10:00,
2013-03-11 12:15:00,65.8,51.5,30.09,South,190,1.0,3.0,60,0.00,,,0.00,Wunderground v.1.15,2013-03-11 16:15:00,
2013-03-11 12:20:00,66.3,51.5,30.09,SW,217,0.0,0.0,59,0.00,,,0.00,Wunderground v.1.15,2013-03-11 16:20:00,
2013-03-11 12:25:00,66.5,51.7,30.09,South,172,0.0,0.0,59,0.00,,,0.00,Wunderground v.1.15,2013-03-11 16:25:00,
2013-03-11 12:30:00,66.7,51.9,30.09,South,175,0.0,1.0,59,0.00,,,0.00,Wunderground v.1.15,2013-03-11 16:30:00,
2013-03-11 12:35:00,66.6,51.8,30.09,South,171,0.0,1.0,59,0.00,,,0.00,Wunderground v.1.15,2013-03-11 16:35:00,
2013-03-11 12:45:00,68.1,52.8,30.08,South,172,0.0,0.0,58,0.00,,,0.00,Wunderground v.1.15,2013-03-11 16:45:00,
2013-03-11 12:50:00,68.2,51.9,30.08,SSE,160,0.0,0.0,56,0.00,,,0.00,Wunderground v.1.15,2013-03-11 16:50:00,
2013-03-11 12:55:00,68.0,51.7,30.08,South,190,1.0,1.0,56,0.00,,,0.00,Wunderground v.1.15,2013-03-11 16:55:00,
2013-03-11 13:05:00,69.2,51.8,30.07,SSW,195,0.0,1.0,54,0.00,,,0.00,Wunderground v.1.15,2013-03-11 17:05:00,
2013-03-11 13:15:00,68.4,52.1,30.07,SE,140,0.0,0.0,56,0.00,,,0.00,Wunderground v.1.15,2013-03-11 17:15:00,
2013-03-11 13:20:00,68.0,51.7,30.07,North,355,0.0,0.0,56,0.00,,,0.00,Wunderground v.1.15,2013-03-11 17:20:00,
2013-03-11 13:25:00,67.9,51.6,30.07,SSW,201,0.0,0.0,56,0.00,,,0.00,Wunderground v.1.15,2013-03-11 17:25:00,
2013-03-11 13:30:00,67.7,51.9,30.06,SSW,194,0.0,0.0,57,0.00,,,0.00,Wunderground v.1.15,2013-03-11 17:30:00,
2013-03-11 13:35:00,67.6,52.3,30.06,SSW,194,0.0,0.0,58,0.00,,,0.00,Wunderground v.1.15,2013-03-11 17:35:00,
2013-03-11 13:45:00,67.7,51.9,30.06,South,172,0.0,0.0,57,0.00,,,0.00,Wunderground v.1.15,2013-03-11 17:45:00,
2013-03-11 13:50:00,67.6,51.8,30.06,SSE,167,0.0,0.0,57,0.00,,,0.00,Wunderground v.1.15,2013-03-11 17:50:00,
2013-03-11 13:55:00,67.6,51.8,30.05,SSW,202,0.0,0.0,57,0.00,,,0.00,Wunderground v.1.15,2013-03-11 17:55:00,
2013-03-11 14:00:00,67.5,51.7,30.05,SSE,168,0.0,1.0,57,0.00,,,0.00,Wunderground v.1.15,2013-03-11 18:00:00,
2013-03-11 14:10:00,67.4,52.1,30.05,South,171,0.0,0.0,58,0.00,,,0.00,Wunderground v.1.15,2013-03-11 18:10:00,
2013-03-11 14:20:00,68.2,51.9,30.03,South,174,1.0,1.0,56,0.00,,,0.00,Wunderground v.1.15,2013-03-11 18:20:00,
2013-03-11 14:25:00,68.4,52.1,30.03,South,169,1.0,1.0,56,0.00,,,0.00,Wunderground v.1.15,2013-03-11 18:25:00,
2013-03-11 14:30:00,68.1,51.8,30.03,South,176,0.0,0.0,56,0.00,,,0.00,Wunderground v.1.15,2013-03-11 18:30:00,
2013-03-11 14:35:00,68.0,51.7,30.03,South,176,0.0,0.0,56,0.00,,,0.00,Wunderground v.1.15,2013-03-11 18:35:00,
2013-03-11 14:40:00,67.8,52.0,30.02,SSW,193,0.0,0.0,57,0.00,,,0.00,Wunderground v.1.15,2013-03-11 18:40:00,
2013-03-11 14:50:00,68.5,52.2,30.02,South,175,0.0,0.0,56,0.00,,,0.00,Wunderground v.1.15,2013-03-11 18:50:00,
2013-03-11 14:55:00,68.4,52.1,30.01,South,174,0.0,0.0,56,0.00,,,0.00,Wunderground v.1.15,2013-03-11 18:55:00,
2013-03-11 15:00:00,68.1,51.8,30.01,South,180,0.0,4.0,56,0.00,,,0.00,Wunderground v.1.15,2013-03-11 19:00:00,
2013-03-11 15:05:00,67.9,52.6,30.01,ENE,76,1.0,4.0,58,0.00,,,0.00,Wunderground v.1.15,2013-03-11 19:05:00,
2013-03-11 15:15:00,68.7,52.4,30.01,SSW,192,0.0,0.0,56,0.00,,,0.00,Wunderground v.1.15,2013-03-11 19:15:00,
2013-03-11 15:20:00,68.6,52.8,30.00,SSW,192,0.0,0.0,57,0.00,,,0.00,Wunderground v.1.15,2013-03-11 19:20:00,
2013-03-11 15:25:00,68.4,53.0,30.00,SSE,163,0.0,0.0,58,0.00,,,0.00,Wunderground v.1.15,2013-03-11 19:25:00,
2013-03-11 15:30:00,68.4,53.5,29.99,South,173,1.0,1.0,59,0.00,,,0.00,Wunderground v.1.15,2013-03-11 19:30:00,
2013-03-11 15:35:00,68.7,53.8,29.99,South,187,0.0,5.0,59,0.00,,,0.00,Wunderground v.1.15,2013-03-11 19:35:00,
2013-03-11 15:40:00,68.7,54.3,29.99,SSE,155,0.0,0.0,60,0.00,,,0.00,Wunderground v.1.15,2013-03-11 19:40:00,
2013-03-11 15:50:00,68.0,54.0,29.98,South,176,0.0,0.0,61,0.00,,,0.00,Wunderground v.1.15,2013-03-11 19:50:00,
2013-03-11 15:55:00,67.8,54.3,29.99,SSW,194,1.0,1.0,62,0.00,,,0.00,Wunderground v.1.15,2013-03-11 19:55:00,
2013-03-11 16:00:00,67.7,53.8,29.98,South,182,1.0,1.0,61,0.00,,,0.00,Wunderground v.1.15,2013-03-11 20:00:00,
2013-03-11 16:05:00,68.1,54.6,29.98,South,186,0.0,1.0,62,0.00,,,0.00,Wunderground v.1.15,2013-03-11 20:05:00,
2013-03-11 16:10:00,68.3,54.8,29.98,SSE,160,0.0,0.0,62,0.00,,,0.00,Wunderground v.1.15,2013-03-11 20:10:00,
2013-03-11 16:15:00,68.0,54.5,29.97,East,86,0.0,0.0,62,0.00,,,0.00,Wunderground v.1.15,2013-03-11 20:15:00,
2013-03-11 16:25:00,67.6,55.0,29.97,ESE,116,0.0,1.0,64,0.00,,,0.00,Wunderground v.1.15,2013-03-11 20:25:00,
2013-03-11 16:30:00,67.5,55.3,29.97,NNE,29,0.0,0.0,65,0.00,,,0.00,Wunderground v.1.15,2013-03-11 20:30:00,
2013-03-11 16:35:00,67.7,55.1,29.96,SSW,201,0.0,0.0,64,0.00,,,0.00,Wunderground v.1.15,2013-03-11 20:35:00,
2013-03-11 16:40:00,67.9,54.8,29.96,SSW,200,0.0,0.0,63,0.00,,,0.00,Wunderground v.1.15,2013-03-11 20:40:00,
2013-03-11 16:45:00,68.0,54.9,29.96,South,188,0.0,0.0,63,0.00,,,0.00,Wunderground v.1.15,2013-03-11 20:45:00,
2013-03-11 16:55:00,67.9,54.8,29.96,ESE,115,0.0,0.0,63,0.00,,,0.00,Wunderground v.1.15,2013-03-11 20:55:00,
2013-03-11 17:00:00,67.7,54.6,29.96,South,188,1.0,1.0,63,0.00,,,0.00,Wunderground v.1.15,2013-03-11 21:00:00,
2013-03-11 17:05:00,67.6,54.6,29.96,South,190,1.0,1.0,63,0.00,,,0.00,Wunderground v.1.15,2013-03-11 21:05:00,
2013-03-11 17:10:00,67.5,54.9,29.96,South,190,0.0,0.0,64,0.00,,,0.00,Wunderground v.1.15,2013-03-11 21:10:00,
2013-03-11 17:15:00,67.4,54.8,29.96,South,173,0.0,0.0,64,0.00,,,0.00,Wunderground v.1.15,2013-03-11 21:15:00,
2013-03-11 17:25:00,67.0,54.4,29.97,SSW,198,0.0,1.0,64,0.00,,,0.00,Wunderground v.1.15,2013-03-11 21:25:00,
2013-03-11 17:30:00,66.9,54.7,29.97,SSW,201,0.0,1.0,65,0.00,,,0.00,Wunderground v.1.15,2013-03-11 21:30:00,
2013-03-11 17:35:00,66.7,54.6,29.98,South,173,1.0,1.0,65,0.00,,,0.00,Wunderground v.1.15,2013-03-11 21:35:00,
2013-03-11 17:40:00,66.5,54.4,29.98,South,176,1.0,1.0,65,0.00,,,0.00,Wunderground v.1.15,2013-03-11 21:40:00,
2013-03-11 17:45:00,66.5,54.4,29.97,South,180,1.0,1.0,65,0.00,,,0.00,Wunderground v.1.15,2013-03-11 21:45:00,
2013-03-11 17:55:00,66.3,54.6,29.96,SSE,156,0.0,0.0,66,0.00,,,0.00,Wunderground v.1.15,2013-03-11 21:55:00,
2013-03-11 18:00:00,66.3,54.6,29.96,SSE,157,0.0,0.0,66,0.00,,,0.00,Wunderground v.1.15,2013-03-11 22:00:00,
2013-03-11 18:05:00,66.2,54.5,29.96,South,180,0.0,0.0,66,0.00,,,0.00,Wunderground v.1.15,2013-03-11 22:05:00,
2013-03-11 18:10:00,66.2,54.5,29.96,South,181,1.0,1.0,66,0.00,,,0.00,Wunderground v.1.15,2013-03-11 22:10:00,
2013-03-11 18:20:00,66.1,54.8,29.96,South,180,0.0,0.0,67,0.00,,,0.00,Wunderground v.1.15,2013-03-11 22:20:00,
2013-03-11 18:30:00,65.9,55.0,29.96,South,185,0.0,0.0,68,0.00,,,0.00,Wunderground v.1.15,2013-03-11 22:30:00,
2013-03-11 18:40:00,65.6,55.2,29.96,South,186,0.0,0.0,69,0.00,,,0.00,Wunderground v.1.15,2013-03-11 22:40:00,
2013-03-11 18:45:00,65.4,55.0,29.96,South,176,1.0,1.0,69,0.00,,,0.00,Wunderground v.1.15,2013-03-11 22:45:00,
2013-03-11 18:50:00,65.2,54.8,29.95,South,179,0.0,4.0,69,0.00,,,0.00,Wunderground v.1.15,2013-03-11 22:50:00,
2013-03-11 19:00:00,64.9,54.5,29.95,South,191,0.0,0.0,69,0.00,,,0.00,Wunderground v.1.15,2013-03-11 23:00:00,
2013-03-11 19:05:00,64.7,54.7,29.95,South,191,0.0,0.0,70,0.00,,,0.00,Wunderground v.1.15,2013-03-11 23:05:00,
2013-03-11 19:15:00,64.4,54.4,29.95,SSW,195,0.0,0.0,70,0.00,,,0.00,Wunderground v.1.15,2013-03-11 23:15:00,
2013-03-11 19:20:00,64.2,54.2,29.94,SSE,165,0.0,2.0,70,0.00,,,0.00,Wunderground v.1.15,2013-03-11 23:20:00,
2013-03-11 19:25:00,64.0,54.4,29.94,South,189,0.0,2.0,71,0.00,,,0.00,Wunderground v.1.15,2013-03-11 23:25:00,
2013-03-11 19:30:00,63.8,54.2,29.94,South,188,0.0,0.0,71,0.00,,,0.00,Wunderground v.1.15,2013-03-11 23:30:00,
2013-03-11 19:35:00,63.7,54.5,29.95,South,176,0.0,2.0,72,0.00,,,0.00,Wunderground v.1.15,2013-03-11 23:35:00,
2013-03-11 19:40:00,63.6,54.4,29.94,South,182,0.0,0.0,72,0.00,,,0.00,Wunderground v.1.15,2013-03-11 23:40:00,
2013-03-11 19:45:00,63.5,54.7,29.94,SW,234,0.0,0.0,73,0.00,,,0.00,Wunderground v.1.15,2013-03-11 23:45:00,
2013-03-11 19:50:00,63.4,54.6,29.94,South,180,0.0,0.0,73,0.00,,,0.00,Wunderground v.1.15,2013-03-11 23:50:00,
2013-03-11 20:00:00,63.2,54.8,29.94,SSW,197,0.0,0.0,74,0.00,,,0.00,Wunderground v.1.15,2013-03-12 00:00:00,
2013-03-11 20:05:00,63.2,54.8,29.94,South,177,1.0,1.0,74,0.00,,,0.00,Wunderground v.1.15,2013-03-12 00:05:00,
2013-03-11 20:15:00,63.1,54.7,29.94,South,190,1.0,4.0,74,0.00,,,0.00,Wunderground v.1.15,2013-03-12 00:15:00,
2013-03-11 20:25:00,63.0,54.9,29.94,South,190,0.0,2.0,75,0.00,,,0.00,Wunderground v.1.15,2013-03-12 00:25:00,
2013-03-11 20:30:00,63.0,54.9,29.95,South,186,0.0,0.0,75,0.00,,,0.00,Wunderground v.1.15,2013-03-12 00:30:00,
2013-03-11 20:35:00,62.9,54.9,29.95,South,172,0.0,0.0,75,0.00,,,0.00,Wunderground v.1.15,2013-03-12 00:35:00,
2013-03-11 20:40:00,62.9,54.9,29.95,South,172,0.0,0.0,75,0.00,,,0.00,Wunderground v.1.15,2013-03-12 00:40:00,
2013-03-11 20:45:00,62.8,54.8,29.95,South,173,0.0,0.0,75,0.00,,,0.00,Wunderground v.1.15,2013-03-12 00:45:00,
2013-03-11 20:50:00,62.7,55.0,29.95,South,173,0.0,0.0,76,0.00,,,0.00,Wunderground v.1.15,2013-03-12 00:50:00,
2013-03-11 20:55:00,62.5,54.8,29.95,South,173,0.0,0.0,76,0.00,,,0.00,Wunderground v.1.15,2013-03-12 00:55:00,
2013-03-11 21:05:00,62.4,54.7,29.95,South,172,0.0,0.0,76,0.00,,,0.00,Wunderground v.1.15,2013-03-12 01:05:00,
2013-03-11 21:10:00,62.3,55.0,29.95,South,172,0.0,0.0,77,0.00,,,0.00,Wunderground v.1.15,2013-03-12 01:10:00,
2013-03-11 21:20:00,62.1,54.8,29.94,South,175,0.0,0.0,77,0.00,,,0.00,Wunderground v.1.15,2013-03-12 01:20:00,
2013-03-11 21:30:00,61.8,54.5,29.94,South,175,0.0,0.0,77,0.00,,,0.00,Wunderground v.1.15,2013-03-12 01:30:00,
2013-03-11 21:35:00,61.7,54.8,29.94,South,175,0.0,0.0,78,0.00,,,0.00,Wunderground v.1.15,2013-03-12 01:35:00,
2013-03-11 21:40:00,61.6,54.7,29.94,South,175,0.0,0.0,78,0.00,,,0.00,Wunderground v.1.15,2013-03-12 01:40:00,
2013-03-11 21:45:00,61.5,54.6,29.94,South,175,0.0,0.0,78,0.00,,,0.00,Wunderground v.1.15,2013-03-12 01:45:00,
2013-03-11 21:55:00,61.3,54.4,29.94,South,175,0.0,0.0,78,0.00,,,0.00,Wunderground v.1.15,2013-03-12 01:55:00,
2013-03-11 22:00:00,61.2,54.3,29.94,South,175,0.0,0.0,78,0.00,,,0.00,Wunderground v.1.15,2013-03-12 02:00:00,
2013-03-11 22:05:00,61.1,54.2,29.93,South,175,0.0,0.0,78,0.00,,,0.00,Wunderground v.1.15,2013-03-12 02:05:00,
2013-03-11 22:15:00,60.9,54.0,29.93,South,175,0.0,1.0,78,0.00,,,0.00,Wunderground v.1.15,2013-03-12 02:15:00,
2013-03-11 22:20:00,60.8,53.9,29.93,South,175,0.0,1.0,78,0.00,,,0.00,Wunderground v.1.15,2013-03-12 02:20:00,
2013-03-11 22:25:00,60.7,54.1,29.94,South,175,0.0,1.0,79,0.00,,,0.00,Wunderground v.1.15,2013-03-12 02:25:00,
2013-03-11 22:30:00,60.6,54.0,29.93,South,175,0.0,1.0,79,0.00,,,0.00,Wunderground v.1.15,2013-03-12 02:30:00,
2013-03-11 22:35:00,60.5,54.0,29.94,South,175,0.0,1.0,79,0.00,,,0.00,Wunderground v.1.15,2013-03-12 02:35:00,
2013-03-11 22:40:00,60.4,53.9,29.94,South,175,0.0,1.0,79,0.00,,,0.00,Wunderground v.1.15,2013-03-12 02:40:00,
2013-03-11 22:45:00,60.4,54.2,29.93,South,175,0.0,1.0,80,0.00,,,0.00,Wunderground v.1.15,2013-03-12 02:45:00,
2013-03-11 22:50:00,60.3,54.1,29.94,South,175,0.0,1.0,80,0.00,,,0.00,Wunderground v.1.15,2013-03-12 02:50:00,
2013-03-11 23:00:00,60.2,54.0,29.93,South,175,0.0,1.0,80,0.00,,,0.00,Wunderground v.1.15,2013-03-12 03:00:00,
2013-03-11 23:10:00,60.2,54.0,29.94,South,175,0.0,1.0,80,0.00,,,0.00,Wunderground v.1.15,2013-03-12 03:10:00,
2013-03-11 23:15:00,60.1,54.2,29.93,South,175,0.0,1.0,81,0.00,,,0.00,Wunderground v.1.15,2013-03-12 03:15:00,
2013-03-11 23:20:00,60.1,54.2,29.93,South,175,0.0,1.0,81,0.00,,,0.00,Wunderground v.1.15,2013-03-12 03:20:00,
2013-03-11 23:25:00,60.0,54.5,29.93,NW,326,0.0,1.0,82,0.00,,,0.00,Wunderground v.1.15,2013-03-12 03:25:00,
2013-03-11 23:30:00,60.0,54.5,29.93,NW,326,0.0,1.0,82,0.00,,,0.00,Wunderground v.1.15,2013-03-12 03:30:00,
2013-03-11 23:35:00,60.0,54.5,29.92,NW,326,0.0,1.0,82,0.00,,,0.00,Wunderground v.1.15,2013-03-12 03:35:00,
2013-03-11 23:40:00,60.0,54.5,29.92,NW,326,0.0,1.0,82,0.00,,,0.00,Wunderground v.1.15,2013-03-12 03:40:00,
2013-03-11 23:45:00,59.9,54.4,29.92,NW,326,0.0,1.0,82,0.00,,,0.00,Wunderground v.1.15,2013-03-12 03:45:00,
2013-03-11 23:50:00,59.9,54.4,29.92,NW,311,0.0,1.0,82,0.00,,,0.00,Wunderground v.1.15,2013-03-12 03:50:00,